Regional Weather Roundup
Issued by NWS

Home | Current Version | Previous Version | Graphics & Text | Print | Product List | Glossary On
Versions: 1 2 3 4 5 6 7 8 9 10 11 12 13 14 15 16 17 18 19 20 21 22 23 24 25 26 27 28 29 30 31 32 33 34 35 36 37 38 39 40 41 42 43 44 45 46 47 48 49 50
000
ASUS43 KLSX 280107
RWRMO

WEATHER SUMMARY FOR MISSOURI
NATIONAL WEATHER SERVICE SPRINGFIELD MO
800 PM CDT WED AUG 27 2014

NOTE: "FAIR" INDICATES FEW OR NO CLOUDS BELOW 12,000 FEET WITH NO
       SIGNIFICANT WEATHER AND/OR OBSTRUCTIONS TO VISIBILITY.
       CURRENT SKY AND/OR WEATHER CONDITIONS ARE NOT AVAILABLE FOR
       CHILLICOTHE AND FARMINGTON.

MOZ001>031-035>038-043-044-053-054-280200-
...NORTHERN AND WESTERN MISSOURI...

CITY           SKY/WX    TMP DP  RH WIND       PRES   REMARKS
KANSAS CTY INT CLOUDY    80  71  74 E9        30.04S
KANSAS C DTWN  CLOUDY    83  72  69 E8        30.02S
LEE`S SUMMIT   CLOUDY    80  72  76 E6        30.05R
ST JOSEPH      CLOUDY    77  72  84 NE6       30.04S
CHILLICOTHE      N/A     77  71  82 CALM      30.07R
KIRKSVILLE     MOCLDY    74  70  87 NE3       30.09R

$$
MOZ066>068-077>081-088>096-101>105-280200-
...SOUTHWEST MISSOURI...

CITY           SKY/WX    TMP DP  RH WIND       PRES   REMARKS
SPRINGFIELD    CLOUDY    83  67  58 NE7       30.03R
JOPLIN         PTCLDY    83  66  56 E8        30.02R

$$
MOZ032>034-039>042-045>050-055>058-069>072-280200-
...CENTRAL MISSOURI...

CITY           SKY/WX    TMP DP  RH WIND       PRES   REMARKS
COLUMBIA       PTCLDY    77  67  71 E10       30.07R
JEFFERSON CITY PTCLDY    77  68  73 SE9       30.05R
ROLLA          CLOUDY    74  68  81 NE9       30.06S
SEDALIA        CLEAR     80  73  79 E5        30.05R
WHITEMAN AFB   PTCLDY    78  56  46 E2        30.04R
OSAGE BEACH    PTCLDY    79  66  65 E5        30.05R

$$
MOZ051-052-059>065-280200-
...EAST CENTRAL MISSOURI...

CITY           SKY/WX    TMP DP  RH WIND       PRES   REMARKS
ST LOUIS INTL  TSTM      76  68  76 NW7       30.10S
SPIRIT OF STL  TSTM      73  68  84 E5        30.06F
ST CHARLES     CLOUDY    73  71  93 SE5       30.05F

$$
MOZ072>076-082>087-097>100-106>115-280200-
...SOUTH CENTRAL AND SOUTHEAST MISSOURI...

CITY           SKY/WX    TMP DP  RH WIND       PRES   REMARKS
CAPE GIRARDEAU MOCLDY    81  76  84 S5        30.02R
FARMINGTON     CLOUDY    73  70  88 NW7       30.11R
POPLAR BLUFF   PTCLDY    83  71  67 CALM      30.02R
WEST PLAINS    MOCLDY    78  68  71 NE3       30.07R

$$



USA.gov is the U.S. government's official web portal to all federal, state and local government web resources and services.